TimeEST,TemperatureF,Dew PointF,Humidity,Sea Level PressureIn,VisibilityMPH,Wind Direction,Wind SpeedMPH,Gust SpeedMPH,PrecipitationIn,Events,Conditions,WindDirDegrees,DateUTC
12:15 AM,41.0,37.4,87,30.37,10.0,North,-9999.0,-,N/A,,Clear,0,2012-12-31 05:15:00
12:35 AM,41.0,39.2,93,30.36,10.0,North,-9999.0,-,N/A,,Clear,0,2012-12-31 05:35:00
12:55 AM,41.0,37.4,87,30.35,10.0,North,-9999.0,-,N/A,,Clear,0,2012-12-31 05:55:00
1:15 AM,41.0,37.4,87,30.35,10.0,North,-9999.0,-,N/A,,Clear,0,2012-12-31 06:15:00
1:35 AM,41.0,37.4,87,30.34,10.0,North,-9999.0,-,N/A,,Clear,0,2012-12-31 06:35:00
1:55 AM,41.0,37.4,87,30.34,10.0,North,-9999.0,-,N/A,,Clear,0,2012-12-31 06:55:00
2:15 AM,39.2,37.4,93,30.34,10.0,North,-9999.0,-,N/A,,Clear,0,2012-12-31 07:15:00
2:35 AM,39.2,37.4,93,30.34,10.0,North,-9999.0,-,N/A,,Clear,0,2012-12-31 07:35:00
2:55 AM,39.2,37.4,93,30.34,10.0,North,-9999.0,-,N/A,,Clear,0,2012-12-31 07:55:00
3:15 AM,39.2,37.4,93,30.33,10.0,North,-9999.0,-,N/A,,Clear,0,2012-12-31 08:15:00
3:35 AM,39.2,37.4,93,30.33,10.0,North,-9999.0,-,N/A,,Clear,0,2012-12-31 08:35:00
3:55 AM,39.2,37.4,93,30.33,10.0,North,-9999.0,-,N/A,,Clear,0,2012-12-31 08:55:00
4:15 AM,37.4,37.4,100,30.33,10.0,North,-9999.0,-,N/A,,Clear,0,2012-12-31 09:15:00
4:35 AM,39.2,37.4,93,30.33,10.0,North,-9999.0,-,N/A,,Clear,0,2012-12-31 09:35:00
4:55 AM,39.2,37.4,93,30.33,10.0,North,-9999.0,-,N/A,,Clear,0,2012-12-31 09:55:00
5:15 AM,39.2,37.4,93,30.34,10.0,North,-9999.0,-,N/A,,Clear,0,2012-12-31 10:15:00
5:35 AM,39.2,37.4,93,30.33,10.0,North,-9999.0,-,N/A,,Clear,0,2012-12-31 10:35:00
5:55 AM,39.2,37.4,93,30.34,10.0,North,-9999.0,-,N/A,,Clear,0,2012-12-31 10:55:00
6:15 AM,37.4,37.4,100,30.34,10.0,North,-9999.0,-,N/A,,Clear,0,2012-12-31 11:15:00
6:35 AM,37.4,37.4,100,30.34,10.0,North,-9999.0,-,N/A,,Clear,0,2012-12-31 11:35:00
6:55 AM,37.4,37.4,100,30.34,10.0,North,-9999.0,-,N/A,,Clear,0,2012-12-31 11:55:00
7:15 AM,37.4,37.4,100,30.35,10.0,North,-9999.0,-,N/A,,Clear,0,2012-12-31 12:15:00
7:35 AM,39.2,37.4,93,30.34,7.0,North,-9999.0,-,N/A,,Clear,0,2012-12-31 12:35:00
7:55 AM,41.0,39.2,93,30.34,7.0,North,-9999.0,-,N/A,,Clear,0,2012-12-31 12:55:00
8:15 AM,41.0,41.0,100,30.35,10.0,North,-9999.0,-,N/A,,Clear,0,2012-12-31 13:15:00
8:35 AM,44.6,42.8,93,30.36,10.0,North,-9999.0,-,N/A,,Clear,0,2012-12-31 13:35:00
8:55 AM,46.4,42.8,87,30.36,10.0,North,-9999.0,-,N/A,,Clear,0,2012-12-31 13:55:00
9:15 AM,50.0,44.6,82,30.37,10.0,North,-9999.0,-,N/A,,Clear,0,2012-12-31 14:15:00
9:35 AM,51.8,46.4,82,30.37,10.0,North,-9999.0,-,N/A,,Clear,0,2012-12-31 14:35:00
9:55 AM,55.4,46.4,72,30.36,10.0,North,-9999.0,-,N/A,,Clear,0,2012-12-31 14:55:00
10:15 AM,59.0,48.2,67,30.36,10.0,North,-9999.0,-,N/A,,Clear,0,2012-12-31 15:15:00
10:35 AM,60.8,48.2,63,30.37,10.0,North,-9999.0,-,N/A,,Clear,0,2012-12-31 15:35:00
10:55 AM,64.4,48.2,56,30.37,10.0,North,-9999.0,-,N/A,,Clear,0,2012-12-31 15:55:00
11:15 AM,66.2,48.2,52,30.36,10.0,North,-9999.0,-,N/A,,Clear,0,2012-12-31 16:15:00
11:35 AM,68.0,48.2,49,30.35,10.0,North,-9999.0,-,N/A,,Clear,0,2012-12-31 16:35:00
11:55 AM,69.8,50.0,49,30.32,10.0,North,-9999.0,-,N/A,,Clear,0,2012-12-31 16:55:00
12:15 PM,71.6,50.0,46,30.31,10.0,North,-9999.0,-,N/A,,Clear,0,2012-12-31 17:15:00
12:35 PM,71.6,50.0,46,30.30,10.0,North,-9999.0,-,N/A,,Clear,0,2012-12-31 17:35:00
12:55 PM,71.6,48.2,43,30.28,10.0,North,-9999.0,-,N/A,,Clear,0,2012-12-31 17:55:00
1:15 PM,71.6,48.2,43,30.28,10.0,North,-9999.0,-,N/A,,Clear,0,2012-12-31 18:15:00
1:35 PM,71.6,50.0,46,30.26,10.0,North,-9999.0,-,N/A,,Clear,0,2012-12-31 18:35:00
1:55 PM,73.4,50.0,44,30.25,10.0,North,-9999.0,-,N/A,,Clear,0,2012-12-31 18:55:00
2:15 PM,73.4,50.0,44,30.24,10.0,North,-9999.0,-,N/A,,Clear,0,2012-12-31 19:15:00
2:35 PM,73.4,50.0,44,30.23,10.0,North,-9999.0,-,N/A,,Clear,0,2012-12-31 19:35:00
2:55 PM,73.4,46.4,38,30.23,10.0,North,-9999.0,-,N/A,,Clear,0,2012-12-31 19:55:00
3:15 PM,73.4,48.2,41,30.23,10.0,North,-9999.0,-,N/A,,Clear,0,2012-12-31 20:15:00
3:35 PM,73.4,48.2,41,-9999,-9999.0,North,-9999.0,-,N/A,,Unknown,0,2012-12-31 20:35:00
3:55 PM,-9999,-9999,N/A,-9999,-9999.0,North,-9999.0,-,N/A,,Unknown,0,2012-12-31 20:55:00
4:15 PM,-9999,-9999,N/A,-9999,-9999.0,North,-9999.0,-,N/A,,Unknown,0,2012-12-31 21:15:00
4:35 PM,-9999,-9999,N/A,-9999,-9999.0,North,-9999.0,-,N/A,,Unknown,0,2012-12-31 21:35:00
4:55 PM,69.8,50.0,49,30.22,10.0,SE,4.6,-,N/A,,Clear,130,2012-12-31 21:55:00
5:15 PM,69.8,50.0,49,30.22,10.0,Calm,Calm,-,N/A,,Clear,0,2012-12-31 22:15:00
5:35 PM,68.0,50.0,52,30.23,10.0,Calm,Calm,-,N/A,,Clear,0,2012-12-31 22:35:00
5:55 PM,62.6,51.8,68,30.23,10.0,Calm,Calm,-,N/A,,Clear,0,2012-12-31 22:55:00
6:15 PM,60.8,51.8,72,30.23,10.0,Calm,Calm,-,N/A,,Clear,0,2012-12-31 23:15:00
6:35 PM,59.0,53.6,82,30.23,10.0,Calm,Calm,-,N/A,,Scattered Clouds,0,2012-12-31 23:35:00
6:55 PM,59.0,53.6,82,30.23,10.0,Calm,Calm,-,N/A,,Clear,0,2012-12-31 23:55:00
7:15 PM,57.2,53.6,88,30.24,10.0,Calm,Calm,-,N/A,,Scattered Clouds,0,2013-01-01 00:15:00
7:35 PM,57.2,53.6,88,30.24,10.0,Calm,Calm,-,N/A,,Clear,0,2013-01-01 00:35:00
7:55 PM,55.4,53.6,94,30.24,10.0,Calm,Calm,-,N/A,,Clear,0,2013-01-01 00:55:00
8:15 PM,53.6,53.6,100,30.24,10.0,Calm,Calm,-,N/A,,Clear,0,2013-01-01 01:15:00
8:35 PM,53.6,53.6,100,30.24,10.0,Calm,Calm,-,N/A,,Clear,0,2013-01-01 01:35:00
8:55 PM,53.6,51.8,94,30.24,7.0,Calm,Calm,-,N/A,,Clear,0,2013-01-01 01:55:00
9:15 PM,51.8,51.8,100,30.25,7.0,Calm,Calm,-,N/A,,Clear,0,2013-01-01 02:15:00
9:35 PM,51.8,51.8,100,30.24,7.0,Calm,Calm,-,N/A,,Clear,0,2013-01-01 02:35:00
9:55 PM,51.8,51.8,100,30.24,5.0,Calm,Calm,-,N/A,,Clear,0,2013-01-01 02:55:00
10:15 PM,51.8,51.8,100,30.25,5.0,Calm,Calm,-,N/A,,Clear,0,2013-01-01 03:15:00
10:35 PM,51.8,51.8,100,30.25,4.0,Calm,Calm,-,N/A,,Clear,0,2013-01-01 03:35:00
10:55 PM,51.8,50.0,94,30.25,3.0,Calm,Calm,-,N/A,,Mist,0,2013-01-01 03:55:00
11:15 PM,50.0,50.0,100,30.25,0.8,Calm,Calm,-,N/A,,Mist,0,2013-01-01 04:15:00
11:35 PM,50.0,50.0,100,30.25,1.0,Calm,Calm,-,N/A,,Mist,0,2013-01-01 04:35:00
11:55 PM,50.0,50.0,100,30.25,3.0,Calm,Calm,-,N/A,,Overcast,0,2013-01-01 04:55:00